Regional Weather Roundup
Issued by NWS

Home | Current Version | Previous Version | Graphics & Text | Print | Product List | Glossary On
Versions: 1 2 3 4 5 6 7 8 9 10 11 12 13 14 15 16 17 18 19 20 21 22 23 24 25 26 27 28 29 30 31 32 33 34 35 36 37 38 39 40 41 42 43 44 45 46 47 48 49 50
000
ASUS45 KSLC 312110
RWRUT
UTAH REGIONAL WEATHER ROUNDUP
NATIONAL WEATHER SERVICE SALT LAKE CITY UT
300 PM MDT FRI JUL 31 2015

UTZ001>011-023>025-312200-

NORTHERN UTAH

CITY           SKY/WX    TMP DP  RH WIND       PRES   REMARKS
BRIGHAM CITY   SUNNY     91  16   6 CALM      30.20F
HILL AFB       MOSUNNY   89  31  12 VRB6      30.24F
LOGAN          SUNNY     91  24   9 CALM      30.22F
OGDEN          MOSUNNY   91  29  11 NW10      30.20F
PROVO AIRPORT  MOSUNNY   86  41  20 VRB6      30.21F
SALT LAKE CITY PTSUNNY   91  25   9 NW7       30.18F
VERNAL         SUNNY     89  21   8 S5        30.22F
WENDOVER       SUNNY     93  28  10 SE9       30.19F
HEBER CITY     SUNNY     91  27   9 W6        30.26F
WEST JORDAN    SUNNY     91  36  14 NW13G18   30.22F

$$

UTZ012>022-026-027-312200-

SOUTHERN/CENTRAL UTAH

CITY           SKY/WX    TMP DP  RH WIND       PRES   REMARKS
BLANDING       MOSUNNY   83  49  30 SE6       30.37F
BRYCE CANYON   CLOUDY    76  42  29 NE17      30.44F
CEDAR CITY     PTSUNNY   86  37  17 CALM      30.28F
DELTA          MOSUNNY   94  20   7 NW12      30.20F
HANKSVILLE     MOSUNNY   95  39  14 E3        30.17F HX  91
MILFORD        SUNNY     96  33  11 N13G18    30.20F HX  91
MOAB/CYNLANDS  SUNNY     95  47  19 NW9       30.15F HX  91
PRICE          SUNNY     92  19   7 SW9       30.27F
ST GEORGE      CLEAR     95  52  23 CALM      30.07F HX  92
KANAB          MOSUNNY   91  45  19 NE3       30.25F

$$

REGIONAL REPORTS     COLORADO/ARIZONA

CITY           SKY/WX    TMP DP  RH WIND       PRES   REMARKS
CRAIG, CO      SUNNY     92  26   9 VRB3      30.28F
GRAND JUNCTION SUNNY     91  37  15 NW12      30.17F
RIFLE          SUNNY     93  21   7 VRB3      30.21F
MONTROSE       MOSUNNY   86  40  19 N5        30.26F
CORTEZ         MOSUNNY   80  54  40 SW9       30.30F
PAGE, AZ       MOSUNNY   92  48  22 VRB6      30.15F
GRAND CANYON   CLOUDY    69  52  54 SE12G21   30.39S
KINGMAN        SUNNY     98  47  17 SW15G23   30.11F HX  94
FLAGSTAFF      CLOUDY    69  51  52 VRB6      30.42R

$$

REGIONAL REPORTS    NEVADA/IDAHO/WYOMING

CITY           SKY/WX    TMP DP  RH WIND       PRES   REMARKS
LAS VEGAS, NV  MOSUNNY  102  51  18 VRB3      29.95F HX  99
ELY            PTSUNNY   88  20   8 W10G17    30.32F
ELKO           SUNNY     94  20   7 VRB5      30.23F
POCATELLO, ID  SUNNY     91  27  10 NW8       30.23F
BURLEY         SUNNY     90  29  11 N7        30.19F
EVANSTON, WY   MOSUNNY   83  15   8 VRB7      30.39F
ROCK SPRINGS   SUNNY     85  20   9 W15G21    30.34F
KEMMERER       SUNNY     82  19   9 W16       30.41F

$$


USA.gov is the U.S. government's official web portal to all federal, state and local government web resources and services.